Hourly Weather Klekotna

Today, 27 July, Tuesday

Time Temperature Precipitation Wind Pressure Humidity
00:00 +19°C° 1.5 mm 2 mps 736 mmHg 87%
01:00 +18°C° 1.5 mm 2 mps 736 mmHg 96%
02:00 +18°C° 0.5 mm 2 mps 736 mmHg 96%
03:00 +18°C° 0.5 mm 2 mps 736 mmHg 96%
04:00 +19°C° 0.5 mm 1 mps 736 mmHg 96%
05:00 +19°C° 0 mm 2 mps 736 mmHg 92%
06:00 +20°C° 0 mm 2 mps 736 mmHg 89%
07:00 +21°C° 0 mm 2 mps 737 mmHg 85%
08:00 +24°C° 0 mm 2 mps 737 mmHg 76%
09:00 +25°C° 0 mm 2 mps 737 mmHg 67%
10:00 +27°C° 0 mm 2 mps 737 mmHg 58%
11:00 +28°C° 0 mm 3 mps 737 mmHg 53%
12:00 +29°C° 0 mm 3 mps 737 mmHg 48%
13:00 +30°C° 0 mm 3 mps 737 mmHg 42%
14:00 +30°C° 0 mm 2 mps 737 mmHg 42%
15:00 +30°C° 0 mm 2 mps 737 mmHg 41%
16:00 +30°C° 0 mm 2 mps 737 mmHg 40%
17:00 +29°C° 0 mm 2 mps 737 mmHg 45%
18:00 +28°C° 0 mm 1 mps 737 mmHg 50%
19:00 +26°C° 0 mm 1 mps 736 mmHg 55%
20:00 +25°C° 0 mm 1 mps 737 mmHg 58%
21:00 +24°C° 0 mm 1 mps 737 mmHg 61%
22:00 +23°C° 0 mm 1 mps 737 mmHg 64%
23:00 +23°C° 0 mm 1 mps 737 mmHg 66%

Tomorrow, 28 July, Wednesday

Time Temperature Precipitation Wind Pressure Humidity
00:00 +22°C° 0 mm 1 mps 736 mmHg 68%
01:00 +22°C° 0 mm 1 mps 736 mmHg 70%
02:00 +21°C° 0 mm 1 mps 736 mmHg 72%
03:00 +21°C° 0 mm 1 mps 736 mmHg 73%
04:00 +21°C° 0 mm 1 mps 736 mmHg 74%
05:00 +22°C° 0.2 mm 1 mps 736 mmHg 74%
06:00 +23°C° 0.2 mm 1 mps 736 mmHg 73%
07:00 +24°C° 0.2 mm 1 mps 736 mmHg 72%
08:00 +24°C° 0.4 mm 2 mps 736 mmHg 70%
09:00 +25°C° 0.4 mm 2 mps 736 mmHg 68%
10:00 +26°C° 0.4 mm 2 mps 736 mmHg 66%
11:00 +26°C° 0.6 mm 2 mps 736 mmHg 66%
12:00 +26°C° 0.6 mm 3 mps 736 mmHg 65%
13:00 +26°C° 0.6 mm 3 mps 736 mmHg 65%
14:00 +26°C° 0.2 mm 3 mps 736 mmHg 65%
15:00 +26°C° 0.2 mm 3 mps 736 mmHg 64%
16:00 +26°C° 0.2 mm 3 mps 736 mmHg 64%
17:00 +25°C° 0.6 mm 3 mps 736 mmHg 70%
18:00 +24°C° 0.6 mm 2 mps 736 mmHg 77%
19:00 +23°C° 0.6 mm 2 mps 736 mmHg 83%
20:00 +21°C° 0.7 mm 2 mps 736 mmHg 87%
21:00 +20°C° 0.7 mm 2 mps 737 mmHg 90%
22:00 +19°C° 0.7 mm 3 mps 737 mmHg 94%
23:00 +18°C° 0.1 mm 3 mps 737 mmHg 94%

Day after tomorrow, 29 July, Thursday

Time Temperature Precipitation Wind Pressure Humidity
00:00 +18°C° 0.1 mm 2 mps 737 mmHg 94%
01:00 +17°C° 0.1 mm 2 mps 737 mmHg 94%
02:00 +17°C° 0 mm 2 mps 737 mmHg 93%
03:00 +16°C° 0 mm 2 mps 737 mmHg 93%
04:00 +15°C° 0 mm 2 mps 737 mmHg 92%
05:00 +17°C° 0 mm 2 mps 737 mmHg 87%
06:00 +18°C° 0 mm 2 mps 737 mmHg 82%
07:00 +19°C° 0 mm 2 mps 737 mmHg 77%
08:00 +21°C° 0 mm 3 mps 737 mmHg 69%
09:00 +24°C° 0 mm 3 mps 737 mmHg 60%
10:00 +26°C° 0 mm 3 mps 737 mmHg 52%
11:00 +27°C° 0 mm 4 mps 737 mmHg 47%
12:00 +28°C° 0 mm 4 mps 737 mmHg 43%
13:00 +29°C° 0 mm 5 mps 737 mmHg 39%
14:00 +29°C° 0 mm 5 mps 737 mmHg 38%
15:00 +28°C° 0 mm 5 mps 736 mmHg 38%
16:00 +28°C° 0 mm 5 mps 736 mmHg 38%
17:00 +27°C° 0 mm 4 mps 736 mmHg 44%
18:00 +26°C° 0 mm 3 mps 736 mmHg 49%
19:00 +25°C° 0 mm 2 mps 735 mmHg 55%
20:00 +24°C° 0 mm 2 mps 735 mmHg 57%
21:00 +23°C° 0 mm 2 mps 735 mmHg 60%
22:00 +21°C° 0 mm 2 mps 735 mmHg 62%
23:00 +21°C° 0 mm 2 mps 735 mmHg 64%

30 July, Friday

Time Temperature Precipitation Wind Pressure Humidity
00:00 +21°C° 0 mm 2 mps 735 mmHg 66%
01:00 +20°C° 0 mm 2 mps 735 mmHg 67%
02:00 +20°C° 0 mm 2 mps 735 mmHg 67%
03:00 +21°C° 0 mm 1 mps 735 mmHg 66%
04:00 +21°C° 0 mm 1 mps 735 mmHg 65%
05:00 +22°C° 0.1 mm 1 mps 735 mmHg 66%
06:00 +22°C° 0.1 mm 1 mps 735 mmHg 66%
07:00 +23°C° 0.1 mm 1 mps 735 mmHg 67%
08:00 +24°C° 0.1 mm 1 mps 735 mmHg 63%
09:00 +25°C° 0.1 mm 2 mps 735 mmHg 59%
10:00 +26°C° 0.1 mm 2 mps 735 mmHg 55%
11:00 +27°C° 0 mm 2 mps 734 mmHg 52%
12:00 +28°C° 0 mm 2 mps 734 mmHg 50%
13:00 +29°C° 0 mm 3 mps 734 mmHg 47%
14:00 +29°C° 0 mm 3 mps 734 mmHg 46%
15:00 +29°C° 0 mm 3 mps 733 mmHg 45%
16:00 +29°C° 0 mm 3 mps 733 mmHg 44%
17:00 +28°C° 0 mm 3 mps 733 mmHg 48%
18:00 +26°C° 0 mm 2 mps 733 mmHg 52%
19:00 +25°C° 0 mm 2 mps 732 mmHg 56%
20:00 +24°C° 0 mm 2 mps 732 mmHg 58%
21:00 +23°C° 0 mm 2 mps 733 mmHg 59%
22:00 +22°C° 0 mm 1 mps 733 mmHg 60%
23:00 +22°C° 0 mm 1 mps 733 mmHg 62%

31 July, Saturday

Time Temperature Precipitation Wind Pressure Humidity
00:00 +21°C° 0 mm 1 mps 732 mmHg 63%
01:00 +21°C° 0 mm 1 mps 732 mmHg 65%
02:00 +20°C° 0.1 mm 1 mps 732 mmHg 68%
03:00 +20°C° 0.1 mm 1 mps 732 mmHg 72%
04:00 +20°C° 0.1 mm 1 mps 732 mmHg 76%
05:00 +20°C° 0 mm 2 mps 732 mmHg 74%
06:00 +21°C° 0 mm 2 mps 732 mmHg 71%
07:00 +22°C° 0 mm 3 mps 732 mmHg 69%
08:00 +24°C° 0.1 mm 3 mps 732 mmHg 65%
09:00 +25°C° 0.1 mm 4 mps 732 mmHg 61%
10:00 +26°C° 0.1 mm 4 mps 733 mmHg 58%
11:00 +26°C° 0.1 mm 4 mps 733 mmHg 55%
12:00 +27°C° 0.1 mm 4 mps 733 mmHg 52%
13:00 +27°C° 0.1 mm 5 mps 733 mmHg 49%
14:00 +26°C° 0.1 mm 5 mps 733 mmHg 52%
15:00 +26°C° 0.1 mm 5 mps 733 mmHg 54%
16:00 +25°C° 0.1 mm 5 mps 733 mmHg 56%
17:00 +23°C° 0 mm 4 mps 733 mmHg 57%
18:00 +22°C° 0 mm 4 mps 733 mmHg 58%
19:00 +21°C° 0 mm 3 mps 734 mmHg 59%
20:00 +20°C° 0 mm 3 mps 734 mmHg 61%
21:00 +19°C° 0 mm 2 mps 734 mmHg 62%
22:00 +18°C° 0 mm 2 mps 734 mmHg 64%
23:00 +17°C° 0 mm 2 mps 734 mmHg 65%

1 August, Sunday

Time Temperature Precipitation Wind Pressure Humidity
00:00 +17°C° 0 mm 2 mps 734 mmHg 66%
01:00 +17°C° 0 mm 2 mps 734 mmHg 68%
02:00 +17°C° 0 mm 2 mps 734 mmHg 69%
03:00 +16°C° 0 mm 2 mps 734 mmHg 70%
04:00 +16°C° 0 mm 1 mps 734 mmHg 71%
05:00 +18°C° 0 mm 1 mps 734 mmHg 68%
06:00 +19°C° 0 mm 1 mps 735 mmHg 65%
07:00 +20°C° 0 mm 1 mps 735 mmHg 62%
08:00 +21°C° 0 mm 1 mps 735 mmHg 58%
09:00 +21°C° 0 mm 2 mps 735 mmHg 54%
10:00 +23°C° 0 mm 2 mps 735 mmHg 50%
11:00 +24°C° 0 mm 2 mps 734 mmHg 47%
12:00 +25°C° 0 mm 2 mps 734 mmHg 43%
13:00 +26°C° 0 mm 3 mps 734 mmHg 39%
14:00 +26°C° 0 mm 3 mps 734 mmHg 40%
15:00 +25°C° 0 mm 2 mps 734 mmHg 41%
16:00 +25°C° 0 mm 2 mps 733 mmHg 41%
17:00 +24°C° 0 mm 2 mps 733 mmHg 46%
18:00 +23°C° 0 mm 2 mps 733 mmHg 50%
19:00 +22°C° 0 mm 1 mps 733 mmHg 54%
20:00 +20°C° 0 mm 2 mps 733 mmHg 57%
21:00 +19°C° 0 mm 2 mps 733 mmHg 61%
22:00 +19°C° 0 mm 3 mps 733 mmHg 65%
23:00 +18°C° 0 mm 3 mps 734 mmHg 69%
Show more